{"data":{"norad_id":48964,"intl_designator":"2021-059CP","name":"SPARTAN","alt_names":[],"object_type":"PAYLOAD","status":"ACTIVE","operator":null,"country":"BUL","launch_date":"2021-06-30","launch_site_code":"AFETR","launch_vehicle":null,"mission":null,"orbit_class":"UNKNOWN","rcs_meters":null,"size_class":null,"mass_kg":null,"dimensions":null,"purposes":[],"wikipedia_slug":null,"has_3d_model":false,"image_url":null,"decayed_at":null,"tle_current":{"epoch":"2026-05-25T01:23:11.255424Z","epoch_age_seconds":76898,"freshness":"FRESH","line1":"1 48964U 21059CP  26145.05776916  .00066324  00000+0  42570-3 0  9998","line2":"2 48964  97.6797 343.0818 0001775  75.0077 285.1384 15.76060035274288","mean_motion":15.76060035,"eccentricity":0.0001775,"inclination_deg":97.6797,"raan_deg":343.0818,"arg_perigee_deg":75.0077,"mean_anomaly_deg":285.1384,"bstar":0.0004257,"rev_number":27428,"period_min":91.367077904491,"perigee_km":340.42366326123,"apogee_km":342.80917572515,"semimajor_km":6719.7534194932,"source":"CELESTRAK","updated_at":"2026-05-25T13:37:56.979541Z"}}}